Location: ??
(34.9170°N, 135.5016°E)
Time: 00:52:21
(UTC+00:00)

RS-15 - Pass Details

Date: 21 April 2021
Orbit: 1888 x 2157 km, 64.8° (Epoch: 12 May)

Event Time Altitude Azimuth Distance (km) Brightness Sun altitude
Rises 18:55:09 0° 329° (NNW) 5,565 10.4 -16.6°
Reaches altitude 10° 18:58:30 10° 328° (NNW) 4,589 9.9 -16.0°
Maximum altitude 19:10:33 77° 245° (WSW) 2,192 8.1 -13.7°
Drops below altitude 10° 19:22:48 10° 162° (SSE) 4,658 10.0 -11.5°
Sets 19:26:14 0° 161° (SSE) 5,651 10.4 -10.8°
